Time,TemperatureF,DewpointF,PressureIn,WindDirection,WindDirectionDegrees,WindSpeedMPH,WindSpeedGustMPH,Humidity,HourlyPrecipIn,Conditions,Clouds,dailyrainin,SolarRadiationWatts/m^2,SoftwareType,DateUTC
2013-12-07 00:02:00,10.3,2.2,30.69,SSE,147,3.0,3.0,69,0.00,,,0.00,0,LWC V2.00 B727,2013-12-07 07:02:00,
2013-12-07 00:07:00,10.3,2.5,30.69,SE,146,1.0,2.0,70,0.00,,,0.00,0,LWC V2.00 B727,2013-12-07 07:07:00,
2013-12-07 00:12:00,10.4,2.6,30.69,SSE,147,0.0,1.0,70,0.00,,,0.00,0,LWC V2.00 B727,2013-12-07 07:12:00,
2013-12-07 00:17:00,10.3,2.5,30.69,SSE,147,1.0,3.0,70,0.00,,,0.00,0,LWC V2.00 B727,2013-12-07 07:17:00,
2013-12-07 00:22:00,10.2,2.4,30.69,SSE,147,0.0,4.0,70,0.00,,,0.00,0,LWC V2.00 B727,2013-12-07 07:22:00,
2013-12-07 00:27:00,10.1,2.3,30.68,SE,146,1.0,2.0,70,0.00,,,0.00,0,LWC V2.00 B727,2013-12-07 07:27:00,
2013-12-07 00:32:00,9.9,2.1,30.68,SSE,147,1.0,4.0,70,0.00,,,0.00,0,LWC V2.00 B727,2013-12-07 07:32:00,
2013-12-07 00:37:00,9.9,2.1,30.67,SE,146,2.0,5.0,70,0.00,,,0.00,0,LWC V2.00 B727,2013-12-07 07:37:00,
2013-12-07 00:42:00,9.9,2.1,30.67,SE,146,2.0,3.0,70,0.00,,,0.00,0,LWC V2.00 B727,2013-12-07 07:42:00,
2013-12-07 00:47:00,9.9,2.1,30.67,SE,146,2.0,2.0,70,0.00,,,0.00,0,LWC V2.00 B727,2013-12-07 07:47:00,
2013-12-07 00:52:00,9.9,2.1,30.67,SE,146,3.0,3.0,70,0.00,,,0.00,0,LWC V2.00 B727,2013-12-07 07:52:00,
2013-12-07 00:57:00,9.9,2.1,30.67,SE,146,2.0,4.0,70,0.00,,,0.00,0,LWC V2.00 B727,2013-12-07 07:57:00,
2013-12-07 01:02:00,10.0,2.2,30.66,SE,145,2.0,4.0,70,0.00,,,0.00,0,LWC V2.00 B727,2013-12-07 08:02:00,
2013-12-07 01:07:00,10.1,2.3,30.66,SE,146,1.0,3.0,70,0.00,,,0.00,0,LWC V2.00 B727,2013-12-07 08:07:00,
2013-12-07 01:12:00,10.3,2.5,30.66,SE,145,0.0,3.0,70,0.00,,,0.00,0,LWC V2.00 B727,2013-12-07 08:12:00,
2013-12-07 01:17:00,10.4,2.6,30.66,SE,145,2.0,2.0,70,0.00,,,0.00,0,LWC V2.00 B727,2013-12-07 08:17:00,
2013-12-07 01:22:00,10.6,2.8,30.65,SE,145,0.0,3.0,70,0.00,,,0.00,0,LWC V2.00 B727,2013-12-07 08:22:00,
2013-12-07 01:27:00,10.7,2.6,30.65,SE,145,1.0,4.0,69,0.00,,,0.00,0,LWC V2.00 B727,2013-12-07 08:27:00,
2013-12-07 01:33:00,10.9,2.8,30.65,SE,144,2.0,4.0,69,0.00,,,0.00,0,LWC V2.00 B727,2013-12-07 08:33:00,
2013-12-07 01:38:00,10.9,2.8,30.65,SE,144,0.0,3.0,69,0.00,,,0.00,0,LWC V2.00 B727,2013-12-07 08:38:00,
2013-12-07 01:43:00,10.9,2.8,30.64,SE,144,0.0,3.0,69,0.00,,,0.00,0,LWC V2.00 B727,2013-12-07 08:43:00,
2013-12-07 01:48:00,10.9,2.4,30.64,SE,144,3.0,3.0,68,0.00,,,0.00,0,LWC V2.00 B727,2013-12-07 08:48:00,
2013-12-07 01:53:00,11.0,2.5,30.64,SE,144,1.0,2.0,68,0.00,,,0.00,0,LWC V2.00 B727,2013-12-07 08:53:00,
2013-12-07 01:58:00,11.0,2.5,30.64,SE,144,2.0,4.0,68,0.00,,,0.00,0,LWC V2.00 B727,2013-12-07 08:58:00,
2013-12-07 02:03:00,11.0,2.5,30.63,SE,144,2.0,3.0,68,0.00,,,0.00,0,LWC V2.00 B727,2013-12-07 09:03:00,
2013-12-07 02:08:00,11.0,2.5,30.63,SE,144,2.0,3.0,68,0.00,,,0.00,0,LWC V2.00 B727,2013-12-07 09:08:00,
2013-12-07 02:13:00,11.0,2.5,30.64,SE,144,2.0,4.0,68,0.00,,,0.00,0,LWC V2.00 B727,2013-12-07 09:13:00,
2013-12-07 02:18:00,11.0,2.5,30.64,SE,143,0.0,2.0,68,0.00,,,0.00,0,LWC V2.00 B727,2013-12-07 09:18:00,
2013-12-07 02:23:00,11.0,2.5,30.64,SE,143,3.0,4.0,68,0.00,,,0.00,0,LWC V2.00 B727,2013-12-07 09:23:00,
2013-12-07 02:28:00,11.0,2.5,30.64,SE,142,1.0,2.0,68,0.00,,,0.00,0,LWC V2.00 B727,2013-12-07 09:28:00,
2013-12-07 02:33:00,11.0,2.5,30.64,SE,143,1.0,4.0,68,0.00,,,0.00,0,LWC V2.00 B727,2013-12-07 09:33:00,
2013-12-07 02:38:00,11.1,2.6,30.64,SE,143,1.0,3.0,68,0.00,,,0.00,0,LWC V2.00 B727,2013-12-07 09:38:00,
2013-12-07 02:43:00,11.2,2.7,30.64,SE,142,0.0,3.0,68,0.00,,,0.00,0,LWC V2.00 B727,2013-12-07 09:43:00,
2013-12-07 02:48:00,11.2,2.7,30.64,SE,142,3.0,4.0,68,0.00,,,0.00,0,LWC V2.00 B727,2013-12-07 09:48:00,
2013-12-07 02:53:00,11.3,2.8,30.65,SE,142,1.0,3.0,68,0.00,,,0.00,0,LWC V2.00 B727,2013-12-07 09:53:00,
2013-12-07 02:58:00,11.3,2.8,30.65,SE,142,0.0,1.0,68,0.00,,,0.00,0,LWC V2.00 B727,2013-12-07 09:58:00,
2013-12-07 03:03:00,11.3,2.8,30.65,SE,142,2.0,4.0,68,0.00,,,0.00,0,LWC V2.00 B727,2013-12-07 10:03:00,
2013-12-07 03:08:00,11.3,2.8,30.65,SE,142,1.0,2.0,68,0.00,,,0.00,0,LWC V2.00 B727,2013-12-07 10:08:00,
2013-12-07 03:13:00,11.2,2.7,30.65,SE,142,1.0,2.0,68,0.00,,,0.00,0,LWC V2.00 B727,2013-12-07 10:13:00,
2013-12-07 03:18:00,11.0,2.9,30.64,SE,142,1.0,2.0,69,0.00,,,0.00,0,LWC V2.00 B727,2013-12-07 10:18:00,
2013-12-07 03:23:00,10.9,2.8,30.64,SE,142,2.0,4.0,69,0.00,,,0.00,0,LWC V2.00 B727,2013-12-07 10:23:00,
2013-12-07 03:28:00,10.9,3.1,30.64,SE,142,1.0,3.0,70,0.00,,,0.00,0,LWC V2.00 B727,2013-12-07 10:28:00,
2013-12-07 03:33:00,10.9,3.1,30.64,SE,142,0.0,1.0,70,0.00,,,0.00,0,LWC V2.00 B727,2013-12-07 10:33:00,
2013-12-07 03:38:00,10.8,2.7,30.64,SE,142,2.0,2.0,69,0.00,,,0.00,0,LWC V2.00 B727,2013-12-07 10:38:00,
2013-12-07 03:43:00,10.4,2.0,30.63,SE,142,0.0,0.0,68,0.00,,,0.00,0,LWC V2.00 B727,2013-12-07 10:43:00,
2013-12-07 03:48:00,10.1,2.0,30.63,SE,142,2.0,3.0,69,0.00,,,0.00,0,LWC V2.00 B727,2013-12-07 10:48:00,
2013-12-07 03:53:00,10.0,2.2,30.63,SE,142,0.0,2.0,70,0.00,,,0.00,0,LWC V2.00 B727,2013-12-07 10:53:00,
2013-12-07 03:58:00,9.9,2.4,30.63,SE,142,0.0,3.0,71,0.00,,,0.00,0,LWC V2.00 B727,2013-12-07 10:58:00,
2013-12-07 04:03:00,9.9,2.7,30.63,SE,142,2.0,4.0,72,0.00,,,0.00,0,LWC V2.00 B727,2013-12-07 11:03:00,
2013-12-07 04:08:00,9.9,2.7,30.63,SE,142,0.0,2.0,72,0.00,,,0.00,0,LWC V2.00 B727,2013-12-07 11:08:00,
2013-12-07 04:13:00,10.0,2.8,30.63,SE,142,0.0,4.0,72,0.00,,,0.00,0,LWC V2.00 B727,2013-12-07 11:13:00,
2013-12-07 04:18:00,10.1,2.9,30.63,SE,142,2.0,4.0,72,0.00,,,0.00,0,LWC V2.00 B727,2013-12-07 11:18:00,
2013-12-07 04:23:00,10.2,3.0,30.63,SE,142,0.0,3.0,72,0.00,,,0.00,0,LWC V2.00 B727,2013-12-07 11:23:00,
2013-12-07 04:28:00,10.3,3.1,30.63,SE,141,0.0,2.0,72,0.00,,,0.00,0,LWC V2.00 B727,2013-12-07 11:28:00,
2013-12-07 04:33:00,10.3,2.8,30.64,SE,141,1.0,2.0,71,0.00,,,0.00,0,LWC V2.00 B727,2013-12-07 11:33:00,
2013-12-07 04:38:00,10.3,2.8,30.64,SE,142,0.0,2.0,71,0.00,,,0.00,0,LWC V2.00 B727,2013-12-07 11:38:00,
2013-12-07 04:43:00,10.1,2.6,30.63,SE,142,0.0,3.0,71,0.00,,,0.00,0,LWC V2.00 B727,2013-12-07 11:43:00,
2013-12-07 04:48:00,9.9,2.7,30.64,SE,142,1.0,3.0,72,0.00,,,0.00,0,LWC V2.00 B727,2013-12-07 11:48:00,
2013-12-07 04:53:00,9.9,2.7,30.64,SE,141,0.0,2.0,72,0.00,,,0.00,0,LWC V2.00 B727,2013-12-07 11:53:00,
2013-12-07 04:58:00,9.9,3.0,30.64,SE,142,0.0,1.0,73,0.00,,,0.00,0,LWC V2.00 B727,2013-12-07 11:58:00,
2013-12-07 05:03:00,9.9,3.0,30.64,SE,142,3.0,4.0,73,0.00,,,0.00,0,LWC V2.00 B727,2013-12-07 12:03:00,
2013-12-07 05:08:00,9.9,2.7,30.63,SE,141,4.0,4.0,72,0.00,,,0.00,0,LWC V2.00 B727,2013-12-07 12:08:00,
2013-12-07 05:13:00,9.9,2.7,30.63,SE,141,0.0,2.0,72,0.00,,,0.00,0,LWC V2.00 B727,2013-12-07 12:13:00,
2013-12-07 05:18:00,9.9,2.7,30.64,SE,141,2.0,3.0,72,0.00,,,0.00,0,LWC V2.00 B727,2013-12-07 12:18:00,
2013-12-07 05:23:00,9.9,3.0,30.63,SE,142,1.0,2.0,73,0.00,,,0.00,0,LWC V2.00 B727,2013-12-07 12:23:00,
2013-12-07 05:28:00,9.9,3.0,30.63,SE,141,2.0,4.0,73,0.00,,,0.00,0,LWC V2.00 B727,2013-12-07 12:28:00,
2013-12-07 05:33:00,9.9,3.0,30.63,SE,141,5.0,6.0,73,0.00,,,0.00,0,LWC V2.00 B727,2013-12-07 12:33:00,
2013-12-07 05:38:00,9.9,3.0,30.62,SE,142,1.0,3.0,73,0.00,,,0.00,0,LWC V2.00 B727,2013-12-07 12:38:00,
2013-12-07 05:43:00,9.9,3.0,30.62,SE,141,2.0,4.0,73,0.00,,,0.00,0,LWC V2.00 B727,2013-12-07 12:43:00,
2013-12-07 05:48:00,9.9,3.0,30.62,SE,141,4.0,4.0,73,0.00,,,0.00,0,LWC V2.00 B727,2013-12-07 12:48:00,
2013-12-07 05:53:00,9.9,3.0,30.62,SE,141,3.0,3.0,73,0.00,,,0.00,0,LWC V2.00 B727,2013-12-07 12:53:00,
2013-12-07 05:58:00,9.9,3.0,30.62,SE,141,2.0,3.0,73,0.00,,,0.00,0,LWC V2.00 B727,2013-12-07 12:58:00,
2013-12-07 06:03:00,9.9,2.7,30.62,SE,141,5.0,5.0,72,0.00,,,0.00,0,LWC V2.00 B727,2013-12-07 13:03:00,
2013-12-07 06:08:00,9.9,2.7,30.62,SE,142,2.0,3.0,72,0.00,,,0.00,0,LWC V2.00 B727,2013-12-07 13:08:00,
2013-12-07 06:13:00,9.9,3.0,30.61,SE,142,2.0,4.0,73,0.00,,,0.00,0,LWC V2.00 B727,2013-12-07 13:13:00,
2013-12-07 06:18:00,9.9,2.7,30.61,SE,141,1.0,2.0,72,0.00,,,0.00,0,LWC V2.00 B727,2013-12-07 13:18:00,
2013-12-07 06:23:00,9.9,2.4,30.62,SE,142,0.0,0.0,71,0.00,,,0.00,0,LWC V2.00 B727,2013-12-07 13:23:00,
2013-12-07 06:28:00,9.7,2.2,30.62,SE,141,0.0,2.0,71,0.00,,,0.00,0,LWC V2.00 B727,2013-12-07 13:28:00,
2013-12-07 06:33:00,9.4,2.2,30.62,SE,141,0.0,2.0,72,0.00,,,0.00,0,LWC V2.00 B727,2013-12-07 13:33:00,
2013-12-07 06:38:00,9.3,2.1,30.62,SE,141,0.0,0.0,72,0.00,,,0.00,0,LWC V2.00 B727,2013-12-07 13:38:00,
2013-12-07 06:43:00,9.2,2.3,30.61,SE,141,4.0,4.0,73,0.00,,,0.00,0,LWC V2.00 B727,2013-12-07 13:43:00,
2013-12-07 06:48:00,9.1,2.5,30.61,SE,141,1.0,4.0,74,0.00,,,0.00,0,LWC V2.00 B727,2013-12-07 13:48:00,
2013-12-07 06:53:00,9.2,2.6,30.61,SE,141,2.0,2.0,74,0.00,,,0.00,0,LWC V2.00 B727,2013-12-07 13:53:00,
2013-12-07 06:58:00,9.2,2.6,30.61,SE,141,1.0,2.0,74,0.00,,,0.00,0,LWC V2.00 B727,2013-12-07 13:58:00,
2013-12-07 07:03:00,9.2,2.6,30.61,SE,142,0.0,0.0,74,0.00,,,0.00,0,LWC V2.00 B727,2013-12-07 14:03:00,
2013-12-07 07:08:00,9.2,2.6,30.61,SE,142,0.0,0.0,74,0.00,,,0.00,5,LWC V2.00 B727,2013-12-07 14:08:00,
2013-12-07 07:13:00,9.1,2.5,30.62,SE,142,0.0,0.0,74,0.00,,,0.00,9,LWC V2.00 B727,2013-12-07 14:13:00,
2013-12-07 07:18:00,8.9,2.0,30.62,SE,141,0.0,0.0,73,0.00,,,0.00,12,LWC V2.00 B727,2013-12-07 14:18:00,
2013-12-07 07:23:00,8.8,2.2,30.63,SE,142,0.0,0.0,74,0.00,,,0.00,18,LWC V2.00 B727,2013-12-07 14:23:00,
2013-12-07 07:28:00,8.6,2.0,30.63,SE,142,0.0,0.0,74,0.00,,,0.00,26,LWC V2.00 B727,2013-12-07 14:28:00,
2013-12-07 07:33:00,8.4,1.8,30.63,SE,142,0.0,0.0,74,0.00,,,0.00,47,LWC V2.00 B727,2013-12-07 14:33:00,
2013-12-07 07:38:00,8.3,2.0,30.63,SE,142,0.0,1.0,75,0.00,,,0.00,79,LWC V2.00 B727,2013-12-07 14:38:00,
2013-12-07 07:43:00,8.5,2.8,30.62,SE,142,0.0,0.0,77,0.00,,,0.00,111,LWC V2.00 B727,2013-12-07 14:43:00,
2013-12-07 07:48:00,8.9,3.5,30.63,SE,142,0.0,0.0,78,0.00,,,0.00,134,LWC V2.00 B727,2013-12-07 14:48:00,
2013-12-07 07:53:00,9.7,4.5,30.62,SE,142,0.0,0.0,79,0.00,,,0.00,171,LWC V2.00 B727,2013-12-07 14:53:00,
2013-12-07 07:58:00,10.8,5.3,30.63,SE,141,0.0,0.0,78,0.00,,,0.00,179,LWC V2.00 B727,2013-12-07 14:58:00,
2013-12-07 08:03:00,11.8,6.0,30.63,SE,142,0.0,0.0,77,0.00,,,0.00,207,LWC V2.00 B727,2013-12-07 15:03:00,
2013-12-07 08:08:00,13.0,6.9,30.62,SE,141,1.0,3.0,76,0.00,,,0.00,162,LWC V2.00 B727,2013-12-07 15:08:00,
2013-12-07 08:13:00,13.9,7.2,30.62,SE,141,0.0,2.0,74,0.00,,,0.00,107,LWC V2.00 B727,2013-12-07 15:13:00,
2013-12-07 08:18:00,14.5,7.5,30.62,SE,141,0.0,0.0,73,0.00,,,0.00,114,LWC V2.00 B727,2013-12-07 15:18:00,
2013-12-07 08:23:00,14.9,7.8,30.62,SE,141,0.0,0.0,73,0.00,,,0.00,158,LWC V2.00 B727,2013-12-07 15:23:00,
2013-12-07 08:28:00,15.4,8.3,30.61,SE,141,0.0,0.0,73,0.00,,,0.00,163,LWC V2.00 B727,2013-12-07 15:28:00,
2013-12-07 08:33:00,15.9,8.5,30.60,SE,141,0.0,2.0,72,0.00,,,0.00,225,LWC V2.00 B727,2013-12-07 15:33:00,
2013-12-07 08:38:00,16.3,8.6,30.61,SE,142,2.0,2.0,71,0.00,,,0.00,162,LWC V2.00 B727,2013-12-07 15:38:00,
2013-12-07 08:43:00,16.6,8.9,30.60,WSW,254,3.0,4.0,71,0.00,,,0.00,195,LWC V2.00 B727,2013-12-07 15:43:00,
2013-12-07 08:48:00,16.7,9.0,30.60,NW,311,0.0,2.0,71,0.00,,,0.00,195,LWC V2.00 B727,2013-12-07 15:48:00,
2013-12-07 08:53:00,16.9,9.2,30.59,NW,313,1.0,6.0,71,0.00,,,0.00,225,LWC V2.00 B727,2013-12-07 15:53:00,
2013-12-07 08:58:00,17.5,10.3,30.60,NNW,331,4.0,6.0,73,0.00,,,0.00,512,LWC V2.00 B727,2013-12-07 15:58:00,
2013-12-07 09:03:00,18.0,10.5,30.60,NW,314,3.0,6.0,72,0.00,,,0.00,315,LWC V2.00 B727,2013-12-07 16:03:00,
2013-12-07 09:08:00,18.4,10.9,30.60,NW,307,6.0,8.0,72,0.00,,,0.00,364,LWC V2.00 B727,2013-12-07 16:08:00,
2013-12-07 09:13:00,18.4,10.6,30.60,West,281,8.0,9.0,71,0.00,,,0.00,290,LWC V2.00 B727,2013-12-07 16:13:00,
2013-12-07 09:18:00,18.1,10.3,30.60,WNW,297,1.0,3.0,71,0.00,,,0.00,260,LWC V2.00 B727,2013-12-07 16:18:00,
2013-12-07 09:23:00,17.7,10.5,30.61,WNW,297,6.0,9.0,73,0.00,,,0.00,287,LWC V2.00 B727,2013-12-07 16:23:00,
2013-12-07 09:28:00,17.6,11.1,30.61,SW,234,1.0,6.0,75,0.00,,,0.00,279,LWC V2.00 B727,2013-12-07 16:28:00,
2013-12-07 09:33:00,17.7,11.4,30.60,NW,306,2.0,8.0,76,0.00,,,0.00,271,LWC V2.00 B727,2013-12-07 16:33:00,
2013-12-07 09:38:00,17.9,11.9,30.60,WNW,296,1.0,5.0,77,0.00,,,0.00,334,LWC V2.00 B727,2013-12-07 16:38:00,
2013-12-07 09:44:00,18.1,12.4,30.60,WNW,292,4.0,7.0,78,0.00,,,0.00,255,LWC V2.00 B727,2013-12-07 16:44:00,
2013-12-07 09:49:00,18.1,12.4,30.60,West,271,1.0,7.0,78,0.00,,,0.00,283,LWC V2.00 B727,2013-12-07 16:49:00,
2013-12-07 09:53:00,18.4,13.0,30.59,WNW,291,4.0,4.0,79,0.00,,,0.00,374,LWC V2.00 B727,2013-12-07 16:53:00,
2013-12-07 09:59:00,18.6,13.2,30.59,WNW,293,2.0,8.0,79,0.00,,,0.00,577,LWC V2.00 B727,2013-12-07 16:59:00,
2013-12-07 10:03:00,19.1,13.7,30.59,WNW,284,2.0,6.0,79,0.00,,,0.00,330,LWC V2.00 B727,2013-12-07 17:03:00,
2013-12-07 10:08:00,19.4,14.0,30.59,NW,319,4.0,6.0,79,0.00,,,0.00,283,LWC V2.00 B727,2013-12-07 17:08:00,
2013-12-07 10:13:00,19.4,14.0,30.59,WNW,298,4.0,11.0,79,0.00,,,0.00,197,LWC V2.00 B727,2013-12-07 17:13:00,
2013-12-07 10:18:00,19.2,13.8,30.58,WNW,300,5.0,7.0,79,0.00,,,0.00,100,LWC V2.00 B727,2013-12-07 17:18:00,
2013-12-07 10:23:00,19.1,14.0,30.58,NW,304,5.0,7.0,80,0.00,,,0.00,192,LWC V2.00 B727,2013-12-07 17:23:00,
2013-12-07 10:28:00,19.4,14.5,30.58,NW,315,4.0,8.0,81,0.00,,,0.00,348,LWC V2.00 B727,2013-12-07 17:28:00,
2013-12-07 10:33:00,19.7,14.8,30.58,WNW,288,4.0,10.0,81,0.00,,,0.00,243,LWC V2.00 B727,2013-12-07 17:33:00,
2013-12-07 10:38:00,19.9,15.0,30.58,NW,317,9.0,10.0,81,0.00,,,0.00,236,LWC V2.00 B727,2013-12-07 17:38:00,
2013-12-07 10:43:00,20.1,15.2,30.58,WNW,298,4.0,9.0,81,0.00,,,0.00,216,LWC V2.00 B727,2013-12-07 17:43:00,
2013-12-07 10:48:00,20.3,15.4,30.58,NNW,332,5.0,9.0,81,0.00,,,0.00,471,LWC V2.00 B727,2013-12-07 17:48:00,
2013-12-07 10:53:00,21.0,16.4,30.57,WNW,298,8.0,8.0,82,0.00,,,0.00,744,LWC V2.00 B727,2013-12-07 17:53:00,
2013-12-07 10:58:00,22.0,17.1,30.57,SW,235,5.0,14.0,81,0.00,,,0.00,772,LWC V2.00 B727,2013-12-07 17:58:00,
2013-12-07 11:03:00,23.0,17.5,30.57,West,277,9.0,11.0,79,0.00,,,0.00,821,LWC V2.00 B727,2013-12-07 18:03:00,
2013-12-07 11:08:00,23.5,17.7,30.57,WNW,283,7.0,11.0,78,0.00,,,0.00,788,LWC V2.00 B727,2013-12-07 18:08:00,
2013-12-07 11:13:00,23.8,17.7,30.57,WNW,294,9.0,10.0,77,0.00,,,0.00,466,LWC V2.00 B727,2013-12-07 18:13:00,
2013-12-07 11:18:00,23.7,17.3,30.56,NW,313,5.0,9.0,76,0.00,,,0.00,411,LWC V2.00 B727,2013-12-07 18:18:00,
2013-12-07 11:23:00,23.3,16.9,30.55,WNW,300,5.0,7.0,76,0.00,,,0.00,448,LWC V2.00 B727,2013-12-07 18:23:00,
2013-12-07 11:28:00,23.2,17.1,30.55,WNW,292,7.0,7.0,77,0.00,,,0.00,503,LWC V2.00 B727,2013-12-07 18:28:00,
2013-12-07 11:33:00,23.3,17.5,30.55,WNW,294,8.0,10.0,78,0.00,,,0.00,548,LWC V2.00 B727,2013-12-07 18:33:00,
2013-12-07 11:39:00,23.4,17.6,30.54,WNW,283,9.0,9.0,78,0.00,,,0.00,446,LWC V2.00 B727,2013-12-07 18:39:00,
2013-12-07 11:44:00,23.5,17.7,30.54,NW,309,5.0,7.0,78,0.00,,,0.00,455,LWC V2.00 B727,2013-12-07 18:44:00,
2013-12-07 11:49:00,23.6,17.8,30.53,WNW,298,6.0,7.0,78,0.00,,,0.00,480,LWC V2.00 B727,2013-12-07 18:49:00,
2013-12-07 11:54:00,23.7,17.9,30.53,WNW,299,4.0,8.0,78,0.00,,,0.00,589,LWC V2.00 B727,2013-12-07 18:54:00,
2013-12-07 11:58:00,23.9,18.1,30.52,NNW,342,6.0,12.0,78,0.00,,,0.00,745,LWC V2.00 B727,2013-12-07 18:58:00,
2013-12-07 12:03:00,23.9,18.1,30.51,NNW,342,3.0,10.0,78,0.00,,,0.00,397,LWC V2.00 B727,2013-12-07 19:03:00,
2013-12-07 12:08:00,24.5,18.6,30.51,West,261,2.0,5.0,78,0.00,,,0.00,432,LWC V2.00 B727,2013-12-07 19:08:00,
2013-12-07 12:13:00,25.7,19.2,30.51,South,188,8.0,11.0,76,0.00,,,0.00,343,LWC V2.00 B727,2013-12-07 19:13:00,
2013-12-07 12:18:00,26.7,19.2,30.50,SW,215,8.0,9.0,73,0.00,,,0.00,417,LWC V2.00 B727,2013-12-07 19:18:00,
2013-12-07 12:24:00,27.4,19.3,30.50,SW,234,4.0,9.0,71,0.00,,,0.00,554,LWC V2.00 B727,2013-12-07 19:24:00,
2013-12-07 12:29:00,28.6,19.7,30.49,SW,221,6.0,7.0,69,0.00,,,0.00,647,LWC V2.00 B727,2013-12-07 19:29:00,
2013-12-07 12:34:00,29.5,19.9,30.49,WSW,240,5.0,10.0,67,0.00,,,0.00,606,LWC V2.00 B727,2013-12-07 19:34:00,
2013-12-07 12:39:00,29.9,19.9,30.49,WSW,246,8.0,13.0,66,0.00,,,0.00,547,LWC V2.00 B727,2013-12-07 19:39:00,
2013-12-07 12:44:00,30.0,19.3,30.48,West,269,3.0,18.0,64,0.00,,,0.00,631,LWC V2.00 B727,2013-12-07 19:44:00,
2013-12-07 12:49:00,30.2,19.1,30.47,West,276,5.0,13.0,63,0.00,,,0.00,359,LWC V2.00 B727,2013-12-07 19:49:00,
2013-12-07 12:54:00,29.8,18.8,30.47,South,184,4.0,15.0,63,0.00,,,0.00,348,LWC V2.00 B727,2013-12-07 19:54:00,
2013-12-07 12:59:00,29.4,18.4,30.47,SSW,200,6.0,11.0,63,0.00,,,0.00,260,LWC V2.00 B727,2013-12-07 19:59:00,
2013-12-07 13:04:00,29.5,18.5,30.46,South,179,15.0,19.0,63,0.00,,,0.00,568,LWC V2.00 B727,2013-12-07 20:04:00,
2013-12-07 13:09:00,29.7,19.0,30.46,South,184,6.0,10.0,64,0.00,,,0.00,568,LWC V2.00 B727,2013-12-07 20:09:00,
2013-12-07 13:14:00,30.1,19.4,30.46,SW,219,10.0,12.0,64,0.00,,,0.00,545,LWC V2.00 B727,2013-12-07 20:14:00,
2013-12-07 13:19:00,30.2,19.5,30.46,SSW,199,9.0,9.0,64,0.00,,,0.00,541,LWC V2.00 B727,2013-12-07 20:19:00,
2013-12-07 13:24:00,30.1,19.0,30.45,SW,222,8.0,17.0,63,0.00,,,0.00,515,LWC V2.00 B727,2013-12-07 20:24:00,
2013-12-07 13:29:00,29.6,18.9,30.45,SW,223,9.0,16.0,64,0.00,,,0.00,496,LWC V2.00 B727,2013-12-07 20:29:00,
2013-12-07 13:34:00,28.9,18.6,30.45,WSW,237,9.0,18.0,65,0.00,,,0.00,487,LWC V2.00 B727,2013-12-07 20:34:00,
2013-12-07 13:39:00,28.8,18.9,30.45,SSW,195,6.0,17.0,66,0.00,,,0.00,439,LWC V2.00 B727,2013-12-07 20:39:00,
2013-12-07 13:44:00,28.2,18.3,30.45,South,180,9.0,19.0,66,0.00,,,0.00,199,LWC V2.00 B727,2013-12-07 20:44:00,
2013-12-07 13:49:00,27.9,18.0,30.45,South,191,8.0,17.0,66,0.00,,,0.00,156,LWC V2.00 B727,2013-12-07 20:49:00,
2013-12-07 13:54:00,27.7,18.2,30.44,South,184,5.0,16.0,67,0.00,,,0.00,144,LWC V2.00 B727,2013-12-07 20:54:00,
2013-12-07 13:59:00,27.5,18.3,30.44,SSW,202,8.0,15.0,68,0.00,,,0.00,244,LWC V2.00 B727,2013-12-07 20:59:00,
2013-12-07 14:04:00,27.3,17.8,30.45,SW,219,11.0,19.0,67,0.00,,,0.00,155,LWC V2.00 B727,2013-12-07 21:04:00,
2013-12-07 14:09:00,27.0,17.9,30.44,South,175,6.0,21.0,68,0.00,,,0.00,88,LWC V2.00 B727,2013-12-07 21:09:00,
2013-12-07 14:14:00,26.7,17.9,30.43,SSW,210,9.0,21.0,69,0.00,,,0.00,107,LWC V2.00 B727,2013-12-07 21:14:00,
2013-12-07 14:19:00,26.4,18.0,30.42,South,180,6.0,19.0,70,0.00,,,0.00,118,LWC V2.00 B727,2013-12-07 21:19:00,
2013-12-07 14:24:00,26.2,17.8,30.42,SSW,192,12.0,12.0,70,0.00,,,0.00,90,LWC V2.00 B727,2013-12-07 21:24:00,
2013-12-07 14:29:00,26.1,17.7,30.41,SSW,193,7.0,16.0,70,0.00,,,0.00,95,LWC V2.00 B727,2013-12-07 21:29:00,
2013-12-07 14:34:00,26.1,17.7,30.41,South,190,18.0,18.0,70,0.00,,,0.00,105,LWC V2.00 B727,2013-12-07 21:34:00,
2013-12-07 14:39:00,26.1,17.3,30.41,South,176,10.0,16.0,69,0.00,,,0.00,81,LWC V2.00 B727,2013-12-07 21:39:00,
2013-12-07 14:44:00,26.2,17.4,30.41,SSW,194,5.0,11.0,69,0.00,,,0.00,97,LWC V2.00 B727,2013-12-07 21:44:00,
2013-12-07 14:49:00,26.2,17.4,30.41,South,179,8.0,13.0,69,0.00,,,0.00,93,LWC V2.00 B727,2013-12-07 21:49:00,
2013-12-07 14:54:00,26.3,17.5,30.41,South,188,14.0,14.0,69,0.00,,,0.00,171,LWC V2.00 B727,2013-12-07 21:54:00,
2013-12-07 14:59:00,26.8,17.7,30.41,South,187,16.0,23.0,68,0.00,,,0.00,378,LWC V2.00 B727,2013-12-07 21:59:00,
2013-12-07 15:04:00,27.1,18.0,30.41,SW,230,4.0,15.0,68,0.00,,,0.00,334,LWC V2.00 B727,2013-12-07 22:04:00,
2013-12-07 15:09:00,27.5,18.3,30.41,WSW,250,7.0,17.0,68,0.00,,,0.00,332,LWC V2.00 B727,2013-12-07 22:09:00,
2013-12-07 15:14:00,27.5,18.3,30.41,WSW,242,6.0,21.0,68,0.00,,,0.00,311,LWC V2.00 B727,2013-12-07 22:14:00,
2013-12-07 15:19:00,27.5,18.7,30.41,SW,214,7.0,14.0,69,0.00,,,0.00,278,LWC V2.00 B727,2013-12-07 22:19:00,
2013-12-07 15:24:00,27.4,18.6,30.41,SW,217,4.0,16.0,69,0.00,,,0.00,104,LWC V2.00 B727,2013-12-07 22:24:00,
2013-12-07 15:29:00,27.2,18.7,30.41,WSW,237,8.0,8.0,70,0.00,,,0.00,107,LWC V2.00 B727,2013-12-07 22:29:00,
2013-12-07 15:34:00,26.9,18.4,30.40,SSW,205,7.0,14.0,70,0.00,,,0.00,167,LWC V2.00 B727,2013-12-07 22:34:00,
2013-12-07 15:39:00,26.6,18.5,30.40,SSW,202,10.0,13.0,71,0.00,,,0.00,77,LWC V2.00 B727,2013-12-07 22:39:00,
2013-12-07 15:44:00,26.3,18.5,30.40,South,170,6.0,12.0,72,0.00,,,0.00,63,LWC V2.00 B727,2013-12-07 22:44:00,
2013-12-07 15:49:00,26.1,18.7,30.40,South,171,8.0,13.0,73,0.00,,,0.00,56,LWC V2.00 B727,2013-12-07 22:49:00,
2013-12-07 15:54:00,25.8,18.4,30.39,SSW,207,8.0,15.0,73,0.00,,,0.00,53,LWC V2.00 B727,2013-12-07 22:54:00,
2013-12-07 15:59:00,25.6,18.5,30.39,South,186,14.0,14.0,74,0.00,,,0.00,97,LWC V2.00 B727,2013-12-07 22:59:00,
2013-12-07 16:04:00,25.5,18.4,30.39,SSW,212,5.0,8.0,74,0.00,,,0.00,51,LWC V2.00 B727,2013-12-07 23:04:00,
2013-12-07 16:09:00,25.5,18.7,30.38,SW,234,6.0,11.0,75,0.00,,,0.00,62,LWC V2.00 B727,2013-12-07 23:09:00,
2013-12-07 16:14:00,25.6,18.5,30.38,South,187,7.0,14.0,74,0.00,,,0.00,54,LWC V2.00 B727,2013-12-07 23:14:00,
2013-12-07 16:19:00,25.7,18.6,30.38,South,184,4.0,9.0,74,0.00,,,0.00,49,LWC V2.00 B727,2013-12-07 23:19:00,
2013-12-07 16:24:00,25.8,18.7,30.38,SW,230,5.0,7.0,74,0.00,,,0.00,35,LWC V2.00 B727,2013-12-07 23:24:00,
2013-12-07 16:29:00,25.8,18.7,30.38,SSW,207,4.0,10.0,74,0.00,,,0.00,30,LWC V2.00 B727,2013-12-07 23:29:00,
2013-12-07 16:34:00,25.7,18.6,30.39,SSW,213,6.0,12.0,74,0.00,,,0.00,19,LWC V2.00 B727,2013-12-07 23:34:00,
2013-12-07 16:39:00,25.5,18.7,30.39,WSW,243,3.0,11.0,75,0.00,,,0.00,11,LWC V2.00 B727,2013-12-07 23:39:00,
2013-12-07 16:44:00,25.2,18.4,30.39,South,188,13.0,16.0,75,0.00,,,0.00,5,LWC V2.00 B727,2013-12-07 23:44:00,
2013-12-07 16:49:00,25.0,18.2,30.38,SW,219,6.0,13.0,75,0.00,,,0.00,0,LWC V2.00 B727,2013-12-07 23:49:00,
2013-12-07 16:54:00,24.9,18.1,30.37,SSE,161,7.0,16.0,75,0.00,,,0.00,0,LWC V2.00 B727,2013-12-07 23:54:00,
2013-12-07 16:59:00,24.8,18.3,30.37,SSW,212,14.0,19.0,76,0.00,,,0.00,0,LWC V2.00 B727,2013-12-07 23:59:00,
2013-12-07 17:04:00,24.6,18.1,30.37,SW,214,5.0,17.0,76,0.00,,,0.00,0,LWC V2.00 B727,2013-12-08 00:04:00,
2013-12-07 17:09:00,24.4,17.9,30.37,SSW,203,6.0,15.0,76,0.00,,,0.00,0,LWC V2.00 B727,2013-12-08 00:09:00,
2013-12-07 17:14:00,24.3,17.8,30.37,South,175,6.0,10.0,76,0.00,,,0.00,0,LWC V2.00 B727,2013-12-08 00:14:00,
2013-12-07 17:19:00,24.3,17.8,30.38,SSW,199,5.0,9.0,76,0.00,,,0.00,0,LWC V2.00 B727,2013-12-08 00:19:00,
2013-12-07 17:24:00,24.3,18.1,30.37,WSW,250,6.0,13.0,77,0.00,,,0.00,0,LWC V2.00 B727,2013-12-08 00:24:00,
2013-12-07 17:29:00,24.3,18.1,30.38,SW,227,3.0,8.0,77,0.00,,,0.00,0,LWC V2.00 B727,2013-12-08 00:29:00,
2013-12-07 17:34:00,24.4,18.2,30.37,South,178,10.0,13.0,77,0.00,,,0.00,0,LWC V2.00 B727,2013-12-08 00:34:00,
2013-12-07 17:39:00,24.6,18.7,30.37,South,184,8.0,12.0,78,0.00,,,0.00,0,LWC V2.00 B727,2013-12-08 00:39:00,
2013-12-07 17:44:00,24.7,18.5,30.36,SSW,211,9.0,11.0,77,0.00,,,0.00,0,LWC V2.00 B727,2013-12-08 00:44:00,
2013-12-07 17:49:00,24.8,18.6,30.37,SSW,206,4.0,12.0,77,0.00,,,0.00,0,LWC V2.00 B727,2013-12-08 00:49:00,
2013-12-07 17:54:00,24.8,18.6,30.36,South,173,7.0,13.0,77,0.00,,,0.00,0,LWC V2.00 B727,2013-12-08 00:54:00,
2013-12-07 17:59:00,24.9,18.7,30.37,SW,234,7.0,10.0,77,0.00,,,0.00,0,LWC V2.00 B727,2013-12-08 00:59:00,
2013-12-07 18:04:00,24.9,18.7,30.36,SSW,200,15.0,15.0,77,0.00,,,0.00,0,LWC V2.00 B727,2013-12-08 01:04:00,
2013-12-07 18:09:00,24.9,18.7,30.36,South,184,15.0,18.0,77,0.00,,,0.00,0,LWC V2.00 B727,2013-12-08 01:09:00,
2013-12-07 18:14:00,25.1,18.9,30.36,South,191,4.0,11.0,77,0.00,,,0.00,0,LWC V2.00 B727,2013-12-08 01:14:00,
2013-12-07 18:19:00,25.1,18.9,30.36,SSW,203,9.0,12.0,77,0.00,,,0.00,0,LWC V2.00 B727,2013-12-08 01:19:00,
2013-12-07 18:24:00,25.2,19.0,30.36,SSW,211,4.0,9.0,77,0.00,,,0.00,0,LWC V2.00 B727,2013-12-08 01:24:00,
2013-12-07 18:29:00,25.3,19.4,30.36,SSW,196,7.0,10.0,78,0.00,,,0.00,0,LWC V2.00 B727,2013-12-08 01:29:00,
2013-12-07 18:34:00,25.3,19.4,30.37,SW,221,11.0,18.0,78,0.00,,,0.00,0,LWC V2.00 B727,2013-12-08 01:34:00,
2013-12-07 18:39:00,25.2,19.6,30.37,SSW,196,7.0,14.0,79,0.00,,,0.00,0,LWC V2.00 B727,2013-12-08 01:39:00,
2013-12-07 18:44:00,25.1,19.5,30.37,SSW,210,10.0,22.0,79,0.00,,,0.00,0,LWC V2.00 B727,2013-12-08 01:44:00,
2013-12-07 18:49:00,25.0,19.4,30.36,South,169,5.0,16.0,79,0.00,,,0.00,0,LWC V2.00 B727,2013-12-08 01:49:00,
2013-12-07 18:54:00,24.9,19.6,30.36,SSW,210,8.0,16.0,80,0.00,,,0.00,0,LWC V2.00 B727,2013-12-08 01:54:00,
2013-12-07 18:59:00,24.9,19.9,30.37,SSW,207,5.0,12.0,81,0.00,,,0.00,0,LWC V2.00 B727,2013-12-08 01:59:00,
2013-12-07 19:04:00,24.8,19.8,30.36,South,190,6.0,8.0,81,0.00,,,0.00,0,LWC V2.00 B727,2013-12-08 02:04:00,
2013-12-07 19:09:00,24.7,19.7,30.36,SW,227,3.0,7.0,81,0.00,,,0.00,0,LWC V2.00 B727,2013-12-08 02:09:00,
2013-12-07 19:14:00,24.7,20.0,30.36,South,180,7.0,14.0,82,0.00,,,0.00,0,LWC V2.00 B727,2013-12-08 02:14:00,
2013-12-07 19:19:00,24.7,20.0,30.36,SW,223,5.0,15.0,82,0.00,,,0.00,0,LWC V2.00 B727,2013-12-08 02:19:00,
2013-12-07 19:24:00,24.7,20.0,30.35,SSW,194,5.0,12.0,82,0.00,,,0.00,0,LWC V2.00 B727,2013-12-08 02:24:00,
2013-12-07 19:29:00,24.7,20.0,30.36,SW,214,4.0,9.0,82,0.00,,,0.00,0,LWC V2.00 B727,2013-12-08 02:29:00,
2013-12-07 19:34:00,24.7,20.0,30.36,SSW,206,4.0,12.0,82,0.00,,,0.00,0,LWC V2.00 B727,2013-12-08 02:34:00,
2013-12-07 19:39:00,24.7,20.0,30.36,SSW,205,4.0,9.0,82,0.00,,,0.00,0,LWC V2.00 B727,2013-12-08 02:39:00,
2013-12-07 19:45:00,24.8,20.1,30.36,South,180,6.0,9.0,82,0.00,,,0.00,0,LWC V2.00 B727,2013-12-08 02:45:00,
2013-12-07 19:50:00,24.8,20.4,30.35,South,190,7.0,11.0,83,0.00,,,0.00,0,LWC V2.00 B727,2013-12-08 02:50:00,
2013-12-07 19:54:00,24.9,20.5,30.35,SSW,203,6.0,19.0,83,0.00,,,0.00,0,LWC V2.00 B727,2013-12-08 02:54:00,
2013-12-07 20:00:00,24.8,20.4,30.35,South,187,2.0,8.0,83,0.00,,,0.00,0,LWC V2.00 B727,2013-12-08 03:00:00,
2013-12-07 20:04:00,24.8,20.4,30.35,SW,227,5.0,12.0,83,0.00,,,0.00,0,LWC V2.00 B727,2013-12-08 03:04:00,
2013-12-07 20:09:00,24.8,20.4,30.35,South,186,15.0,15.0,83,0.00,,,0.00,0,LWC V2.00 B727,2013-12-08 03:09:00,
2013-12-07 20:15:00,24.8,20.7,30.35,SW,223,11.0,15.0,84,0.00,,,0.00,0,LWC V2.00 B727,2013-12-08 03:15:00,
2013-12-07 20:20:00,24.7,20.6,30.35,SW,223,2.0,8.0,84,0.00,,,0.00,0,LWC V2.00 B727,2013-12-08 03:20:00,
2013-12-07 20:25:00,24.7,20.6,30.34,South,173,11.0,18.0,84,0.00,,,0.00,0,LWC V2.00 B727,2013-12-08 03:25:00,
2013-12-07 20:30:00,24.6,20.7,30.34,SW,220,16.0,17.0,85,0.00,,,0.00,0,LWC V2.00 B727,2013-12-08 03:30:00,
2013-12-07 20:35:00,24.7,20.8,30.34,South,180,17.0,21.0,85,0.00,,,0.00,0,LWC V2.00 B727,2013-12-08 03:35:00,
2013-12-07 20:40:00,24.7,20.8,30.33,WSW,237,11.0,17.0,85,0.00,,,0.00,0,LWC V2.00 B727,2013-12-08 03:40:00,
2013-12-07 20:45:00,24.7,20.8,30.33,SW,219,15.0,15.0,85,0.00,,,0.00,0,LWC V2.00 B727,2013-12-08 03:45:00,
2013-12-07 20:50:00,24.7,20.8,30.33,SW,223,17.0,22.0,85,0.00,,,0.00,0,LWC V2.00 B727,2013-12-08 03:50:00,
2013-12-07 20:55:00,24.8,20.9,30.33,South,175,13.0,17.0,85,0.00,,,0.00,0,LWC V2.00 B727,2013-12-08 03:55:00,
2013-12-07 21:00:00,24.8,20.7,30.33,SSW,205,5.0,16.0,84,0.00,,,0.00,0,LWC V2.00 B727,2013-12-08 04:00:00,
2013-12-07 21:05:00,24.7,20.6,30.33,South,177,9.0,15.0,84,0.00,,,0.00,0,LWC V2.00 B727,2013-12-08 04:05:00,
2013-12-07 21:10:00,24.7,20.3,30.32,SSW,213,16.0,18.0,83,0.00,,,0.00,0,LWC V2.00 B727,2013-12-08 04:10:00,
2013-12-07 21:15:00,24.8,19.8,30.31,SSW,202,10.0,20.0,81,0.00,,,0.00,0,LWC V2.00 B727,2013-12-08 04:15:00,
2013-12-07 21:20:00,25.0,19.7,30.32,SW,223,4.0,22.0,80,0.00,,,0.00,0,LWC V2.00 B727,2013-12-08 04:20:00,
2013-12-07 21:25:00,25.1,19.8,30.31,South,190,10.0,18.0,80,0.00,,,0.00,0,LWC V2.00 B727,2013-12-08 04:25:00,
2013-12-07 21:30:00,25.0,19.4,30.32,SSW,209,14.0,26.0,79,0.00,,,0.00,0,LWC V2.00 B727,2013-12-08 04:30:00,
2013-12-07 21:35:00,25.0,19.1,30.32,South,173,9.0,13.0,78,0.00,,,0.00,0,LWC V2.00 B727,2013-12-08 04:35:00,
2013-12-07 21:40:00,25.1,19.2,30.32,South,191,9.0,13.0,78,0.00,,,0.00,0,LWC V2.00 B727,2013-12-08 04:40:00,
2013-12-07 21:45:00,25.1,19.2,30.32,SSW,213,7.0,9.0,78,0.00,,,0.00,0,LWC V2.00 B727,2013-12-08 04:45:00,
2013-12-07 21:50:00,25.0,18.8,30.32,SW,223,14.0,21.0,77,0.00,,,0.00,0,LWC V2.00 B727,2013-12-08 04:50:00,
2013-12-07 21:55:00,24.9,18.7,30.32,West,269,14.0,15.0,77,0.00,,,0.00,0,LWC V2.00 B727,2013-12-08 04:55:00,
2013-12-07 22:00:00,24.9,18.7,30.32,South,188,10.0,13.0,77,0.00,,,0.00,0,LWC V2.00 B727,2013-12-08 05:00:00,
2013-12-07 22:01:00,24.9,19.0,30.32,SW,230,5.0,13.0,78,0.00,,,0.00,0,LWC V2.00 B727,2013-12-08 05:01:00,
2013-12-07 22:06:00,24.8,18.6,30.33,SW,215,6.0,13.0,77,0.00,,,0.00,0,LWC V2.00 B727,2013-12-08 05:06:00,
2013-12-07 22:11:00,24.7,18.5,30.32,SSW,209,10.0,18.0,77,0.00,,,0.00,0,LWC V2.00 B727,2013-12-08 05:11:00,
2013-12-07 22:16:00,24.7,18.5,30.32,South,178,13.0,17.0,77,0.00,,,0.00,0,LWC V2.00 B727,2013-12-08 05:16:00,
2013-12-07 22:21:00,24.5,18.3,30.32,SW,235,8.0,14.0,77,0.00,,,0.00,0,LWC V2.00 B727,2013-12-08 05:21:00,
2013-12-07 22:26:00,24.3,18.1,30.32,WSW,245,4.0,15.0,77,0.00,,,0.00,0,LWC V2.00 B727,2013-12-08 05:26:00,
2013-12-07 22:31:00,24.2,18.0,30.31,SW,219,10.0,18.0,77,0.00,,,0.00,0,LWC V2.00 B727,2013-12-08 05:31:00,
2013-12-07 22:36:00,24.0,17.9,30.31,SSW,203,8.0,16.0,77,0.00,,,0.00,0,LWC V2.00 B727,2013-12-08 05:36:00,
2013-12-07 22:41:00,23.9,17.5,30.31,SSW,193,8.0,9.0,76,0.00,,,0.00,0,LWC V2.00 B727,2013-12-08 05:41:00,
2013-12-07 22:46:00,23.8,17.4,30.31,SSW,213,7.0,15.0,76,0.00,,,0.00,0,LWC V2.00 B727,2013-12-08 05:46:00,
2013-12-07 22:51:00,23.6,17.2,30.31,South,184,4.0,13.0,76,0.00,,,0.00,0,LWC V2.00 B727,2013-12-08 05:51:00,
2013-12-07 22:56:00,23.5,16.8,30.31,SSW,207,4.0,13.0,75,0.00,,,0.00,0,LWC V2.00 B727,2013-12-08 05:56:00,
2013-12-07 23:01:00,23.5,16.8,30.31,South,182,3.0,19.0,75,0.00,,,0.00,0,LWC V2.00 B727,2013-12-08 06:01:00,
2013-12-07 23:06:00,23.5,16.8,30.31,West,263,9.0,20.0,75,0.00,,,0.00,0,LWC V2.00 B727,2013-12-08 06:06:00,
2013-12-07 23:11:00,23.5,16.8,30.31,South,187,4.0,16.0,75,0.00,,,0.00,0,LWC V2.00 B727,2013-12-08 06:11:00,
2013-12-07 23:16:00,23.5,16.8,30.31,WSW,242,12.0,14.0,75,0.00,,,0.00,0,LWC V2.00 B727,2013-12-08 06:16:00,
2013-12-07 23:21:00,23.5,16.8,30.30,SSW,194,11.0,16.0,75,0.00,,,0.00,0,LWC V2.00 B727,2013-12-08 06:21:00,
2013-12-07 23:26:00,23.4,16.7,30.30,SW,222,6.0,14.0,75,0.00,,,0.00,0,LWC V2.00 B727,2013-12-08 06:26:00,
2013-12-07 23:31:00,23.3,16.9,30.30,SW,229,7.0,14.0,76,0.00,,,0.00,0,LWC V2.00 B727,2013-12-08 06:31:00,
2013-12-07 23:36:00,23.1,16.7,30.30,South,186,13.0,15.0,76,0.00,,,0.00,0,LWC V2.00 B727,2013-12-08 06:36:00,
2013-12-07 23:41:00,23.0,16.6,30.30,SSW,209,7.0,19.0,76,0.00,,,0.00,0,LWC V2.00 B727,2013-12-08 06:41:00,
2013-12-07 23:46:00,22.9,16.5,30.30,South,189,5.0,16.0,76,0.00,,,0.00,0,LWC V2.00 B727,2013-12-08 06:46:00,
2013-12-07 23:51:00,22.8,16.4,30.30,SSW,196,7.0,12.0,76,0.00,,,0.00,0,LWC V2.00 B727,2013-12-08 06:51:00,
2013-12-07 23:56:00,22.8,16.4,30.30,SW,219,3.0,7.0,76,0.00,,,0.00,0,LWC V2.00 B727,2013-12-08 06:56:00,